Time,TemperatureF,DewpointF,PressureIn,WindDirection,WindDirectionDegrees,WindSpeedMPH,WindSpeedGustMPH,Humidity,HourlyPrecipIn,Conditions,Clouds,dailyrainin,SoftwareType,DateUTC
2013-01-07 00:05:00,28.2,22.2,29.96,West,260,0.0,0.0,78,0.00,BKN,,0.00,WeatherDisplay:10.37,2013-01-07 05:05:00,
2013-01-07 00:10:00,28.8,22.8,29.96,West,260,0.0,0.0,78,0.00,BKN,,0.00,WeatherDisplay:10.37,2013-01-07 05:10:00,
2013-01-07 00:20:00,27.2,21.3,29.96,West,260,0.0,0.0,78,0.00,BKN,,0.00,WeatherDisplay:10.37,2013-01-07 05:20:00,
2013-01-07 00:25:00,26.4,20.5,29.96,West,260,0.0,0.0,78,0.00,BKN,,0.00,WeatherDisplay:10.37,2013-01-07 05:25:00,
2013-01-07 00:30:00,26.1,20.2,29.96,West,260,0.0,0.0,78,0.00,BKN,,0.00,WeatherDisplay:10.37,2013-01-07 05:30:00,
2013-01-07 00:40:00,28.0,22.0,29.97,West,260,0.0,0.0,78,0.00,BKN,,0.00,WeatherDisplay:10.37,2013-01-07 05:40:00,
2013-01-07 00:45:00,27.2,21.2,29.97,West,260,0.0,0.0,78,0.00,BKN,,0.00,WeatherDisplay:10.37,2013-01-07 05:45:00,
2013-01-07 00:50:00,27.5,21.5,29.97,West,260,0.0,0.0,78,0.00,BKN,,0.00,WeatherDisplay:10.37,2013-01-07 05:50:00,
2013-01-07 01:00:00,29.1,23.1,29.98,West,260,0.0,0.0,78,0.00,BKN,,0.00,WeatherDisplay:10.37,2013-01-07 06:00:00,
2013-01-07 01:10:00,28.2,24.9,29.98,West,260,0.0,0.0,87,0.00,SCT,,0.00,WeatherDisplay:10.37,2013-01-07 06:10:00,
2013-01-07 01:15:00,28.2,24.8,29.99,West,260,0.0,0.0,87,0.00,SCT,,0.00,WeatherDisplay:10.37,2013-01-07 06:15:00,
2013-01-07 01:20:00,29.0,25.6,29.99,West,260,0.0,0.0,87,0.00,SCT,,0.00,WeatherDisplay:10.37,2013-01-07 06:20:00,
2013-01-07 01:25:00,28.4,25.0,29.99,West,260,0.0,0.0,87,0.00,SCT,,0.00,WeatherDisplay:10.37,2013-01-07 06:25:00,
2013-01-07 01:30:00,28.9,25.6,29.99,West,260,0.0,0.0,87,0.00,SCT,,0.00,WeatherDisplay:10.37,2013-01-07 06:30:00,
2013-01-07 01:35:00,29.7,26.3,29.99,West,260,0.0,0.0,87,0.00,SCT,,0.00,WeatherDisplay:10.37,2013-01-07 06:35:00,
2013-01-07 01:40:00,29.6,26.2,29.99,West,260,0.0,0.0,87,0.00,SCT,,0.00,WeatherDisplay:10.37,2013-01-07 06:40:00,
2013-01-07 01:45:00,29.0,25.6,30.00,West,260,0.0,0.0,87,0.00,SCT,,0.00,WeatherDisplay:10.37,2013-01-07 06:45:00,
2013-01-07 01:50:00,29.4,26.0,30.00,West,260,0.0,0.0,87,0.00,SCT,,0.00,WeatherDisplay:10.37,2013-01-07 06:50:00,
2013-01-07 01:55:00,29.0,25.6,30.00,West,260,0.0,0.0,87,0.00,SCT,,0.00,WeatherDisplay:10.37,2013-01-07 06:55:00,
2013-01-07 02:00:00,29.4,26.0,30.00,West,260,0.0,0.0,87,0.00,SCT,,0.00,WeatherDisplay:10.37,2013-01-07 07:00:00,
2013-01-07 02:05:00,29.9,27.9,30.00,West,260,0.0,0.0,92,0.00,OVC,,0.00,WeatherDisplay:10.37,2013-01-07 07:05:00,
2013-01-07 02:10:00,29.6,27.6,30.00,West,260,0.0,0.0,92,0.00,OVC,,0.00,WeatherDisplay:10.37,2013-01-07 07:10:00,
2013-01-07 02:15:00,29.3,27.3,30.00,West,260,0.0,0.0,92,0.00,OVC,,0.00,WeatherDisplay:10.37,2013-01-07 07:15:00,
2013-01-07 02:25:00,29.7,27.6,30.00,West,260,0.0,0.0,92,0.00,OVC,,0.00,WeatherDisplay:10.37,2013-01-07 07:25:00,
2013-01-07 02:30:00,29.5,27.4,30.01,West,260,0.0,0.0,92,0.00,OVC,,0.00,WeatherDisplay:10.37,2013-01-07 07:30:00,
2013-01-07 02:35:00,28.6,26.6,30.01,West,260,0.0,0.0,92,0.00,OVC,,0.00,WeatherDisplay:10.37,2013-01-07 07:35:00,
2013-01-07 02:45:00,27.4,25.4,30.01,West,260,0.0,0.0,92,0.00,OVC,,0.00,WeatherDisplay:10.37,2013-01-07 07:45:00,
2013-01-07 02:50:00,27.4,25.4,30.01,West,260,0.0,0.0,92,0.00,OVC,,0.00,WeatherDisplay:10.37,2013-01-07 07:50:00,
2013-01-07 02:55:00,27.9,25.9,30.01,West,260,0.0,0.0,92,0.00,OVC,,0.00,WeatherDisplay:10.37,2013-01-07 07:55:00,
2013-01-07 03:00:00,27.6,25.5,30.01,West,260,0.0,0.0,92,0.00,OVC,,0.00,WeatherDisplay:10.37,2013-01-07 08:00:00,
2013-01-07 03:05:00,27.3,25.0,30.01,West,260,0.0,0.0,91,0.00,SCT,,0.00,WeatherDisplay:10.37,2013-01-07 08:05:00,
2013-01-07 03:10:00,27.2,24.9,30.02,West,260,0.0,0.0,91,0.00,SCT,,0.00,WeatherDisplay:10.37,2013-01-07 08:10:00,
2013-01-07 03:15:00,27.3,25.0,30.02,West,260,0.0,0.0,91,0.00,SCT,,0.00,WeatherDisplay:10.37,2013-01-07 08:15:00,
2013-01-07 03:20:00,28.2,25.9,30.02,West,260,0.0,0.0,91,0.00,SCT,,0.00,WeatherDisplay:10.37,2013-01-07 08:20:00,
2013-01-07 03:25:00,27.3,25.1,30.02,West,260,0.0,0.0,91,0.00,SCT,,0.00,WeatherDisplay:10.37,2013-01-07 08:25:00,
2013-01-07 03:30:00,27.0,24.7,30.02,West,260,0.0,0.0,91,0.00,SCT,,0.00,WeatherDisplay:10.37,2013-01-07 08:30:00,
2013-01-07 03:35:00,26.7,24.4,30.02,West,260,0.0,0.0,91,0.00,SCT,,0.00,WeatherDisplay:10.37,2013-01-07 08:35:00,
2013-01-07 03:40:00,26.9,24.6,30.02,West,260,0.0,0.0,91,0.00,SCT,,0.00,WeatherDisplay:10.37,2013-01-07 08:40:00,
2013-01-07 03:45:00,27.0,24.7,30.02,West,260,0.0,0.0,91,0.00,SCT,,0.00,WeatherDisplay:10.37,2013-01-07 08:45:00,
2013-01-07 03:55:00,27.7,25.5,30.03,West,260,0.0,0.0,91,0.00,SCT,,0.00,WeatherDisplay:10.37,2013-01-07 08:55:00,
2013-01-07 04:00:00,27.9,25.6,30.04,West,260,0.0,0.0,91,0.00,SCT,,0.00,WeatherDisplay:10.37,2013-01-07 09:00:00,
2013-01-07 04:05:00,28.4,26.4,30.04,West,260,0.0,0.0,92,0.00,BKN,,0.00,WeatherDisplay:10.37,2013-01-07 09:05:00,
2013-01-07 04:10:00,28.8,26.7,30.04,West,260,0.0,0.0,92,0.00,BKN,,0.00,WeatherDisplay:10.37,2013-01-07 09:10:00,
2013-01-07 04:15:00,28.7,26.7,30.04,West,260,0.0,0.0,92,0.00,BKN,,0.00,WeatherDisplay:10.37,2013-01-07 09:15:00,
2013-01-07 04:20:00,29.0,27.0,30.04,West,260,0.0,0.0,92,0.00,BKN,,0.00,WeatherDisplay:10.37,2013-01-07 09:20:00,
2013-01-07 04:25:00,29.8,27.8,30.04,West,260,0.0,0.0,92,0.00,BKN,,0.00,WeatherDisplay:10.37,2013-01-07 09:25:00,
2013-01-07 04:30:00,30.3,28.3,30.05,West,260,0.0,0.0,92,0.00,BKN,,0.00,WeatherDisplay:10.37,2013-01-07 09:30:00,
2013-01-07 04:35:00,30.5,28.5,30.05,West,260,0.0,0.0,92,0.00,BKN,,0.00,WeatherDisplay:10.37,2013-01-07 09:35:00,
2013-01-07 04:40:00,30.4,28.4,30.05,West,260,0.0,0.0,92,0.00,BKN,,0.00,WeatherDisplay:10.37,2013-01-07 09:40:00,
2013-01-07 04:45:00,30.1,28.0,30.05,West,260,0.0,0.0,92,0.00,BKN,,0.00,WeatherDisplay:10.37,2013-01-07 09:45:00,
2013-01-07 04:50:00,29.8,27.7,30.05,West,260,0.0,0.0,92,0.00,BKN,,0.00,WeatherDisplay:10.37,2013-01-07 09:50:00,
2013-01-07 04:55:00,29.8,27.8,30.05,West,260,0.0,0.0,92,0.00,BKN,,0.00,WeatherDisplay:10.37,2013-01-07 09:55:00,
2013-01-07 05:00:00,29.9,27.8,30.06,West,260,0.0,0.0,92,0.00,BKN,,0.00,WeatherDisplay:10.37,2013-01-07 10:00:00,
2013-01-07 05:05:00,29.9,26.7,30.06,West,260,0.0,0.0,88,0.00,-SN,,0.00,WeatherDisplay:10.37,2013-01-07 10:05:00,
2013-01-07 05:10:00,30.1,27.0,30.07,West,260,0.0,0.0,88,0.00,-SN,,0.00,WeatherDisplay:10.37,2013-01-07 10:10:00,
2013-01-07 05:15:00,30.0,28.0,30.07,West,262,0.0,5.0,92,0.00,-SN,,0.00,WeatherDisplay:10.37,2013-01-07 10:15:00,
2013-01-07 05:20:00,30.3,28.2,30.08,West,264,0.0,0.0,92,0.00,-SN,,0.00,WeatherDisplay:10.37,2013-01-07 10:20:00,
2013-01-07 05:25:00,30.5,28.4,30.08,West,263,0.0,0.0,92,0.00,-SN,,0.00,WeatherDisplay:10.37,2013-01-07 10:25:00,
2013-01-07 05:30:00,31.3,29.2,30.08,WNW,291,1.0,10.0,92,0.00,-SN,,0.00,WeatherDisplay:10.37,2013-01-07 10:30:00,
2013-01-07 05:35:00,31.3,29.3,30.08,WNW,299,0.0,9.0,92,0.00,-SN,,0.00,WeatherDisplay:10.37,2013-01-07 10:35:00,
2013-01-07 05:45:00,31.2,29.1,30.09,WNW,294,0.0,5.0,92,0.00,-SN,,0.00,WeatherDisplay:10.37,2013-01-07 10:45:00,
2013-01-07 05:50:00,31.3,29.2,30.10,WNW,294,0.0,0.0,92,0.00,-SN,,0.00,WeatherDisplay:10.37,2013-01-07 10:50:00,
2013-01-07 06:00:00,31.0,29.0,30.11,West,281,0.0,5.0,92,0.00,-SN,,0.00,WeatherDisplay:10.37,2013-01-07 11:00:00,
2013-01-07 06:05:00,31.2,29.2,30.11,West,271,0.0,0.0,92,0.00,OVC,,0.00,WeatherDisplay:10.37,2013-01-07 11:05:00,
2013-01-07 06:10:00,31.1,29.1,30.11,West,271,0.0,0.0,92,0.00,OVC,,0.00,WeatherDisplay:10.37,2013-01-07 11:10:00,
2013-01-07 06:15:00,31.3,29.3,30.12,West,271,0.0,0.0,92,0.00,OVC,,0.00,WeatherDisplay:10.37,2013-01-07 11:15:00,
2013-01-07 06:25:00,31.8,29.7,30.12,WNW,287,0.0,3.0,92,0.00,OVC,,0.00,WeatherDisplay:10.37,2013-01-07 11:25:00,
2013-01-07 06:30:00,31.9,29.8,30.13,WNW,289,0.0,0.0,92,0.00,OVC,,0.00,WeatherDisplay:10.37,2013-01-07 11:30:00,
2013-01-07 06:35:00,32.1,30.0,30.13,WNW,289,1.0,6.0,92,0.00,OVC,,0.00,WeatherDisplay:10.37,2013-01-07 11:35:00,
2013-01-07 06:40:00,31.9,29.9,30.14,WNW,284,0.0,3.0,92,0.00,OVC,,0.00,WeatherDisplay:10.37,2013-01-07 11:40:00,
2013-01-07 06:45:00,31.7,29.6,30.14,West,280,0.0,0.0,92,0.00,OVC,,0.00,WeatherDisplay:10.37,2013-01-07 11:45:00,
2013-01-07 06:50:00,31.5,29.5,30.15,West,280,0.0,0.0,92,0.00,OVC,,0.00,WeatherDisplay:10.37,2013-01-07 11:50:00,
2013-01-07 06:55:00,31.4,29.4,30.15,West,280,0.0,0.0,92,0.00,OVC,,0.00,WeatherDisplay:10.37,2013-01-07 11:55:00,
2013-01-07 07:00:00,31.5,29.4,30.15,WNW,303,1.0,6.0,92,0.00,OVC,,0.00,WeatherDisplay:10.37,2013-01-07 12:00:00,
2013-01-07 07:05:00,31.4,23.4,30.15,NNW,333,2.0,10.0,72,0.00,BKN,,0.00,WeatherDisplay:10.37,2013-01-07 12:05:00,
2013-01-07 07:10:00,31.2,23.3,30.16,North,358,0.0,6.0,72,0.00,BKN,,0.00,WeatherDisplay:10.37,2013-01-07 12:10:00,
2013-01-07 07:15:00,30.6,22.6,30.16,NNE,15,0.0,7.0,72,0.00,BKN,,0.00,WeatherDisplay:10.37,2013-01-07 12:15:00,
2013-01-07 07:20:00,30.3,22.4,30.17,NNE,15,1.0,5.0,72,0.00,BKN,,0.00,WeatherDisplay:10.37,2013-01-07 12:20:00,
2013-01-07 07:30:00,29.8,22.5,30.17,North,4,1.0,10.0,74,0.00,OVC,,0.00,WeatherDisplay:10.37,2013-01-07 12:30:00,
2013-01-07 07:35:00,29.3,22.0,30.17,NNW,340,0.0,6.0,74,0.00,OVC,,0.00,WeatherDisplay:10.37,2013-01-07 12:35:00,
2013-01-07 07:40:00,29.2,21.9,30.18,NNW,334,1.0,8.0,74,0.00,OVC,,0.00,WeatherDisplay:10.37,2013-01-07 12:40:00,
2013-01-07 07:45:00,29.0,21.8,30.19,NNW,348,0.0,7.0,74,0.00,OVC,,0.00,WeatherDisplay:10.37,2013-01-07 12:45:00,
2013-01-07 07:50:00,28.8,21.6,30.19,North,356,0.0,0.0,74,0.00,OVC,,0.00,WeatherDisplay:10.37,2013-01-07 12:50:00,
2013-01-07 07:55:00,28.8,21.5,30.20,North,355,0.0,6.0,74,0.00,OVC,,0.00,WeatherDisplay:10.37,2013-01-07 12:55:00,
2013-01-07 08:00:00,28.8,21.5,30.20,North,353,0.0,0.0,74,0.00,OVC,,0.00,WeatherDisplay:10.37,2013-01-07 13:00:00,
2013-01-07 08:05:00,28.6,20.7,30.21,North,358,1.0,11.0,72,0.00,SCT,,0.00,WeatherDisplay:10.37,2013-01-07 13:05:00,
2013-01-07 08:10:00,28.8,20.9,30.22,NNE,27,1.0,8.0,72,0.00,SCT,,0.00,WeatherDisplay:10.37,2013-01-07 13:10:00,
2013-01-07 08:15:00,28.7,20.9,30.22,NNE,26,1.0,9.0,72,0.00,SCT,,0.00,WeatherDisplay:10.37,2013-01-07 13:15:00,
2013-01-07 08:20:00,28.5,20.6,30.23,NNW,337,0.0,5.0,72,0.00,SCT,,0.00,WeatherDisplay:10.37,2013-01-07 13:20:00,
2013-01-07 08:25:00,28.3,20.4,30.22,NW,324,0.0,5.0,72,0.00,SCT,,0.00,WeatherDisplay:10.37,2013-01-07 13:25:00,
2013-01-07 08:30:00,28.2,20.4,30.23,NNW,345,0.0,8.0,72,0.00,SCT,,0.00,WeatherDisplay:10.37,2013-01-07 13:30:00,
2013-01-07 08:35:00,28.0,20.2,30.24,NNW,332,2.0,10.0,72,0.00,SCT,,0.00,WeatherDisplay:10.37,2013-01-07 13:35:00,
2013-01-07 08:40:00,28.0,20.1,30.24,NW,316,0.0,6.0,72,0.00,SCT,,0.00,WeatherDisplay:10.37,2013-01-07 13:40:00,
2013-01-07 08:45:00,28.1,20.2,30.24,NNW,335,1.0,9.0,72,0.00,SCT,,0.00,WeatherDisplay:10.37,2013-01-07 13:45:00,
2013-01-07 08:50:00,28.0,20.1,30.25,North,350,0.0,9.0,72,0.00,SCT,,0.00,WeatherDisplay:10.37,2013-01-07 13:50:00,
2013-01-07 08:55:00,27.5,19.7,30.25,NNW,343,1.0,10.0,72,0.00,SCT,,0.00,WeatherDisplay:10.37,2013-01-07 13:55:00,
2013-01-07 09:00:00,27.4,19.5,30.25,North,353,0.0,9.0,72,0.00,SCT,,0.00,WeatherDisplay:10.37,2013-01-07 14:00:00,
2013-01-07 09:05:00,27.5,15.4,30.26,North,4,0.0,13.0,60,0.00,CLR,,0.00,WeatherDisplay:10.37,2013-01-07 14:05:00,
2013-01-07 09:10:00,27.4,15.3,30.27,NNE,32,1.0,7.0,60,0.00,CLR,,0.00,WeatherDisplay:10.37,2013-01-07 14:10:00,
2013-01-07 09:15:00,27.3,15.2,30.27,NE,38,2.0,10.0,60,0.00,CLR,,0.00,WeatherDisplay:10.37,2013-01-07 14:15:00,
2013-01-07 09:20:00,27.5,15.4,30.28,NNE,22,2.0,12.0,60,0.00,CLR,,0.00,WeatherDisplay:10.37,2013-01-07 14:20:00,
2013-01-07 09:25:00,27.4,15.3,30.28,North,11,2.0,10.0,60,0.00,CLR,,0.00,WeatherDisplay:10.37,2013-01-07 14:25:00,
2013-01-07 09:30:00,27.2,15.1,30.29,NNE,21,0.0,10.0,60,0.00,CLR,,0.00,WeatherDisplay:10.37,2013-01-07 14:30:00,
2013-01-07 09:35:00,27.2,15.1,30.29,North,7,2.0,10.0,60,0.00,CLR,,0.00,WeatherDisplay:10.37,2013-01-07 14:35:00,
2013-01-07 09:40:00,27.0,15.0,30.29,North,354,2.0,10.0,60,0.00,CLR,,0.00,WeatherDisplay:10.37,2013-01-07 14:40:00,
2013-01-07 09:45:00,26.9,14.9,30.30,NNE,22,0.0,10.0,60,0.00,CLR,,0.00,WeatherDisplay:10.37,2013-01-07 14:45:00,
2013-01-07 09:55:00,26.9,14.8,30.31,North,6,1.0,9.0,60,0.00,CLR,,0.00,WeatherDisplay:10.37,2013-01-07 14:55:00,
2013-01-07 10:00:00,27.4,15.3,30.31,SSE,159,0.0,8.0,60,0.00,CLR,,0.00,WeatherDisplay:10.37,2013-01-07 15:00:00,
2013-01-07 10:05:00,27.3,15.3,30.31,SSE,154,0.0,10.0,60,0.00,CLR,,0.00,WeatherDisplay:10.37,2013-01-07 15:05:00,
2013-01-07 10:10:00,27.0,14.9,30.31,SE,131,0.0,0.0,60,0.00,CLR,,0.00,WeatherDisplay:10.37,2013-01-07 15:10:00,
2013-01-07 10:15:00,27.4,15.3,30.31,SE,125,0.0,6.0,60,0.00,CLR,,0.00,WeatherDisplay:10.37,2013-01-07 15:15:00,
2013-01-07 10:25:00,28.5,16.4,30.32,ESE,121,0.0,0.0,60,0.00,CLR,,0.00,WeatherDisplay:10.37,2013-01-07 15:25:00,
2013-01-07 10:30:00,28.2,16.1,30.31,ESE,109,0.0,5.0,60,0.00,CLR,,0.00,WeatherDisplay:10.37,2013-01-07 15:30:00,
2013-01-07 10:35:00,28.6,16.5,30.31,NE,52,0.0,6.0,60,0.00,CLR,,0.00,WeatherDisplay:10.37,2013-01-07 15:35:00,
2013-01-07 10:40:00,28.0,15.9,30.32,North,355,0.0,0.0,60,0.00,CLR,,0.00,WeatherDisplay:10.37,2013-01-07 15:40:00,
2013-01-07 10:50:00,28.5,16.4,30.32,NNE,23,0.0,6.0,60,0.00,CLR,,0.00,WeatherDisplay:10.37,2013-01-07 15:50:00,
2013-01-07 10:55:00,27.7,15.6,30.32,NNE,15,0.0,6.0,60,0.00,CLR,,0.00,WeatherDisplay:10.37,2013-01-07 15:55:00,
2013-01-07 11:00:00,28.0,15.9,30.32,North,8,0.0,0.0,60,0.00,CLR,,0.00,WeatherDisplay:10.37,2013-01-07 16:00:00,
2013-01-07 11:05:00,28.2,14.9,30.32,North,7,0.0,0.0,57,0.00,CLR,,0.00,WeatherDisplay:10.37,2013-01-07 16:05:00,
2013-01-07 11:10:00,28.5,15.2,30.32,North,7,0.0,0.0,57,0.00,CLR,,0.00,WeatherDisplay:10.37,2013-01-07 16:10:00,
2013-01-07 11:15:00,28.9,15.5,30.31,NNE,13,0.0,3.0,57,0.00,CLR,,0.00,WeatherDisplay:10.37,2013-01-07 16:15:00,
2013-01-07 11:20:00,28.3,15.0,30.31,NE,35,1.0,8.0,57,0.00,CLR,,0.00,WeatherDisplay:10.37,2013-01-07 16:20:00,
2013-01-07 11:25:00,29.1,15.7,30.31,NNE,18,0.0,0.0,57,0.00,CLR,,0.00,WeatherDisplay:10.37,2013-01-07 16:25:00,
2013-01-07 11:30:00,29.6,16.2,30.32,North,356,0.0,0.0,57,0.00,CLR,,0.00,WeatherDisplay:10.37,2013-01-07 16:30:00,
2013-01-07 11:40:00,29.0,15.7,30.32,North,356,0.0,5.0,57,0.00,CLR,,0.00,WeatherDisplay:10.37,2013-01-07 16:40:00,
2013-01-07 11:45:00,29.1,15.7,30.32,North,357,0.0,6.0,57,0.00,CLR,,0.00,WeatherDisplay:10.37,2013-01-07 16:45:00,
2013-01-07 11:50:00,29.5,16.1,30.32,North,357,0.0,0.0,57,0.00,CLR,,0.00,WeatherDisplay:10.37,2013-01-07 16:50:00,
2013-01-07 11:55:00,29.2,15.9,30.32,North,357,0.0,0.0,57,0.00,CLR,,0.00,WeatherDisplay:10.37,2013-01-07 16:55:00,
2013-01-07 12:00:00,29.9,16.5,30.32,North,357,0.0,0.0,57,0.00,CLR,,0.00,WeatherDisplay:10.37,2013-01-07 17:00:00,
2013-01-07 12:05:00,30.4,15.3,30.32,North,357,1.0,6.0,53,0.00,CLR,,0.00,WeatherDisplay:10.37,2013-01-07 17:05:00,
2013-01-07 12:10:00,29.3,14.3,30.32,North,357,0.0,0.0,53,0.00,CLR,,0.00,WeatherDisplay:10.37,2013-01-07 17:10:00,
2013-01-07 12:20:00,31.4,16.2,30.33,North,357,1.0,7.0,53,0.00,CLR,,0.00,WeatherDisplay:10.37,2013-01-07 17:20:00,
2013-01-07 12:25:00,31.8,16.6,30.33,North,357,0.0,6.0,53,0.00,CLR,,0.00,WeatherDisplay:10.37,2013-01-07 17:25:00,
2013-01-07 12:30:00,30.4,15.3,30.33,North,359,0.0,0.0,53,0.00,CLR,,0.00,WeatherDisplay:10.37,2013-01-07 17:30:00,
2013-01-07 12:35:00,31.4,16.3,30.33,North,357,1.0,8.0,53,0.00,CLR,,0.00,WeatherDisplay:10.37,2013-01-07 17:35:00,
2013-01-07 12:40:00,32.1,16.9,30.32,North,355,1.0,9.0,53,0.00,CLR,,0.00,WeatherDisplay:10.37,2013-01-07 17:40:00,
2013-01-07 12:45:00,31.3,16.1,30.33,North,356,0.0,6.0,53,0.00,CLR,,0.00,WeatherDisplay:10.37,2013-01-07 17:45:00,
2013-01-07 12:50:00,31.7,16.5,30.33,North,8,1.0,7.0,53,0.00,CLR,,0.00,WeatherDisplay:10.37,2013-01-07 17:50:00,
2013-01-07 12:55:00,32.1,16.9,30.32,NE,42,0.0,0.0,53,0.00,CLR,,0.00,WeatherDisplay:10.37,2013-01-07 17:55:00,
2013-01-07 13:05:00,31.6,16.4,30.32,ENE,61,0.0,0.0,53,0.00,CLR,,0.00,WeatherDisplay:10.37,2013-01-07 18:05:00,
2013-01-07 13:10:00,31.9,16.6,30.33,ENE,61,0.0,0.0,53,0.00,CLR,,0.00,WeatherDisplay:10.37,2013-01-07 18:10:00,
2013-01-07 13:20:00,30.9,15.8,30.33,NE,38,0.0,6.0,53,0.00,CLR,,0.00,WeatherDisplay:10.37,2013-01-07 18:20:00,
2013-01-07 13:25:00,30.9,15.7,30.33,NNE,15,0.0,0.0,53,0.00,CLR,,0.00,WeatherDisplay:10.37,2013-01-07 18:25:00,
2013-01-07 13:30:00,31.0,15.8,30.33,North,11,0.0,5.0,53,0.00,CLR,,0.00,WeatherDisplay:10.37,2013-01-07 18:30:00,
2013-01-07 13:35:00,32.0,16.8,30.33,North,10,0.0,7.0,53,0.00,CLR,,0.00,WeatherDisplay:10.37,2013-01-07 18:35:00,
2013-01-07 13:40:00,31.4,16.2,30.33,North,10,0.0,7.0,53,0.00,CLR,,0.00,WeatherDisplay:10.37,2013-01-07 18:40:00,
2013-01-07 13:45:00,31.4,16.2,30.34,North,8,0.0,0.0,53,0.00,CLR,,0.00,WeatherDisplay:10.37,2013-01-07 18:45:00,
2013-01-07 13:50:00,32.3,17.1,30.34,North,8,0.0,0.0,53,0.00,CLR,,0.00,WeatherDisplay:10.37,2013-01-07 18:50:00,
2013-01-07 13:55:00,31.9,16.7,30.34,North,8,0.0,0.0,53,0.00,CLR,,0.00,WeatherDisplay:10.37,2013-01-07 18:55:00,
2013-01-07 14:00:00,32.8,17.5,30.34,North,8,0.0,0.0,53,0.00,CLR,,0.00,WeatherDisplay:10.37,2013-01-07 19:00:00,
2013-01-07 14:05:00,33.0,14.5,30.34,North,7,0.0,6.0,46,0.00,CLR,,0.00,WeatherDisplay:10.37,2013-01-07 19:05:00,
2013-01-07 14:10:00,31.8,13.4,30.34,North,6,0.0,0.0,46,0.00,CLR,,0.00,WeatherDisplay:10.37,2013-01-07 19:10:00,
2013-01-07 14:15:00,32.0,13.5,30.34,North,6,0.0,0.0,46,0.00,CLR,,0.00,WeatherDisplay:10.37,2013-01-07 19:15:00,
2013-01-07 14:20:00,31.8,13.3,30.34,North,6,0.0,0.0,46,0.00,CLR,,0.00,WeatherDisplay:10.37,2013-01-07 19:20:00,
2013-01-07 14:25:00,32.2,13.7,30.34,North,6,0.0,0.0,46,0.00,CLR,,0.00,WeatherDisplay:10.37,2013-01-07 19:25:00,
2013-01-07 14:30:00,31.7,13.2,30.34,North,6,0.0,0.0,46,0.00,CLR,,0.00,WeatherDisplay:10.37,2013-01-07 19:30:00,
2013-01-07 14:35:00,31.0,12.6,30.35,North,6,0.0,0.0,46,0.00,CLR,,0.00,WeatherDisplay:10.37,2013-01-07 19:35:00,
2013-01-07 14:40:00,31.0,12.6,30.35,North,6,0.0,0.0,46,0.00,CLR,,0.00,WeatherDisplay:10.37,2013-01-07 19:40:00,
2013-01-07 14:45:00,31.5,13.1,30.35,North,6,0.0,0.0,46,0.00,CLR,,0.00,WeatherDisplay:10.37,2013-01-07 19:45:00,
2013-01-07 14:50:00,30.6,12.2,30.34,North,6,0.0,0.0,46,0.00,CLR,,0.00,WeatherDisplay:10.37,2013-01-07 19:50:00,
2013-01-07 14:55:00,30.9,12.6,30.35,North,6,0.0,0.0,46,0.00,CLR,,0.00,WeatherDisplay:10.37,2013-01-07 19:55:00,
2013-01-07 15:00:00,30.8,12.5,30.35,North,6,0.0,0.0,46,0.00,CLR,,0.00,WeatherDisplay:10.37,2013-01-07 20:00:00,
2013-01-07 15:05:00,30.3,11.0,30.35,North,6,0.0,0.0,44,0.00,CLR,,0.00,WeatherDisplay:10.37,2013-01-07 20:05:00,
2013-01-07 15:10:00,30.6,11.2,30.35,North,6,0.0,0.0,44,0.00,CLR,,0.00,WeatherDisplay:10.37,2013-01-07 20:10:00,
2013-01-07 15:20:00,29.4,10.1,30.35,North,6,0.0,0.0,44,0.00,CLR,,0.00,WeatherDisplay:10.37,2013-01-07 20:20:00,
2013-01-07 15:30:00,29.5,10.2,30.36,North,6,0.0,0.0,44,0.00,CLR,,0.00,WeatherDisplay:10.37,2013-01-07 20:30:00,
2013-01-07 15:35:00,29.4,10.1,30.36,North,6,0.0,0.0,44,0.00,CLR,,0.00,WeatherDisplay:10.37,2013-01-07 20:35:00,
2013-01-07 15:40:00,28.8,9.6,30.36,North,6,0.0,0.0,44,0.00,CLR,,0.00,WeatherDisplay:10.37,2013-01-07 20:40:00,
2013-01-07 15:45:00,29.0,9.8,30.36,North,6,0.0,0.0,44,0.00,CLR,,0.00,WeatherDisplay:10.37,2013-01-07 20:45:00,
2013-01-07 15:50:00,28.7,9.5,30.36,North,6,0.0,0.0,44,0.00,CLR,,0.00,WeatherDisplay:10.37,2013-01-07 20:50:00,
2013-01-07 15:55:00,27.8,8.7,30.37,North,6,0.0,0.0,44,0.00,CLR,,0.00,WeatherDisplay:10.37,2013-01-07 20:55:00,
2013-01-07 16:00:00,28.2,9.0,30.37,North,6,0.0,0.0,44,0.00,CLR,,0.00,WeatherDisplay:10.37,2013-01-07 21:00:00,
2013-01-07 16:05:00,28.1,7.9,30.37,North,6,0.0,0.0,42,0.00,CLR,,0.00,WeatherDisplay:10.37,2013-01-07 21:05:00,
2013-01-07 16:10:00,27.3,7.2,30.37,North,6,0.0,0.0,42,0.00,CLR,,0.00,WeatherDisplay:10.37,2013-01-07 21:10:00,
2013-01-07 16:15:00,27.8,7.7,30.38,North,6,0.0,0.0,42,0.00,CLR,,0.00,WeatherDisplay:10.37,2013-01-07 21:15:00,
2013-01-07 16:20:00,27.1,7.0,30.37,North,6,0.0,0.0,42,0.00,CLR,,0.00,WeatherDisplay:10.37,2013-01-07 21:20:00,
2013-01-07 16:25:00,27.0,7.0,30.37,North,6,0.0,0.0,42,0.00,CLR,,0.00,WeatherDisplay:10.37,2013-01-07 21:25:00,
2013-01-07 16:30:00,26.3,6.3,30.37,North,6,0.0,0.0,42,0.00,CLR,,0.00,WeatherDisplay:10.37,2013-01-07 21:30:00,
2013-01-07 16:35:00,26.6,6.5,30.38,North,6,0.0,0.0,42,0.00,CLR,,0.00,WeatherDisplay:10.37,2013-01-07 21:35:00,
2013-01-07 16:40:00,25.9,5.9,30.38,North,6,0.0,0.0,42,0.00,CLR,,0.00,WeatherDisplay:10.37,2013-01-07 21:40:00,
2013-01-07 16:45:00,25.9,5.9,30.37,North,6,0.0,0.0,42,0.00,CLR,,0.00,WeatherDisplay:10.37,2013-01-07 21:45:00,
2013-01-07 16:50:00,26.2,6.2,30.37,North,6,0.0,0.0,42,0.00,CLR,,0.00,WeatherDisplay:10.37,2013-01-07 21:50:00,
2013-01-07 16:55:00,25.7,5.7,30.37,North,6,0.0,0.0,42,0.00,CLR,,0.00,WeatherDisplay:10.37,2013-01-07 21:55:00,
2013-01-07 17:00:00,25.4,5.4,30.37,North,6,0.0,0.0,42,0.00,CLR,,0.00,WeatherDisplay:10.37,2013-01-07 22:00:00,
2013-01-07 17:05:00,25.4,9.7,30.36,North,6,0.0,0.0,51,0.00,CLR,,0.00,WeatherDisplay:10.37,2013-01-07 22:05:00,
2013-01-07 17:10:00,25.2,9.6,30.36,North,6,0.0,0.0,51,0.00,CLR,,0.00,WeatherDisplay:10.37,2013-01-07 22:10:00,
2013-01-07 17:15:00,25.6,10.0,30.37,North,6,0.0,0.0,51,0.00,CLR,,0.00,WeatherDisplay:10.37,2013-01-07 22:15:00,
2013-01-07 17:20:00,24.4,8.9,30.38,North,6,0.0,0.0,51,0.00,CLR,,0.00,WeatherDisplay:10.37,2013-01-07 22:20:00,
2013-01-07 17:25:00,24.0,8.4,30.38,North,6,0.0,0.0,51,0.00,CLR,,0.00,WeatherDisplay:10.37,2013-01-07 22:25:00,
2013-01-07 17:30:00,23.8,8.2,30.38,North,6,0.0,0.0,51,0.00,CLR,,0.00,WeatherDisplay:10.37,2013-01-07 22:30:00,
2013-01-07 17:35:00,23.4,7.9,30.38,North,6,0.0,0.0,51,0.00,CLR,,0.00,WeatherDisplay:10.37,2013-01-07 22:35:00,
2013-01-07 17:40:00,23.5,8.0,30.39,North,6,0.0,0.0,51,0.00,CLR,,0.00,WeatherDisplay:10.37,2013-01-07 22:40:00,
2013-01-07 17:45:00,23.2,7.7,30.39,North,6,0.0,0.0,51,0.00,CLR,,0.00,WeatherDisplay:10.37,2013-01-07 22:45:00,
2013-01-07 17:50:00,24.0,8.4,30.39,North,6,0.0,0.0,51,0.00,CLR,,0.00,WeatherDisplay:10.37,2013-01-07 22:50:00,
2013-01-07 17:55:00,23.1,7.6,30.39,North,6,0.0,0.0,51,0.00,CLR,,0.00,WeatherDisplay:10.37,2013-01-07 22:55:00,
2013-01-07 18:00:00,22.5,7.1,30.39,North,6,0.0,0.0,51,0.00,CLR,,0.00,WeatherDisplay:10.37,2013-01-07 23:00:00,
2013-01-07 18:05:00,22.2,11.9,30.39,North,6,0.0,0.0,64,0.00,CLR,,0.00,WeatherDisplay:10.37,2013-01-07 23:05:00,
2013-01-07 18:10:00,22.2,11.9,30.39,North,6,0.0,0.0,64,0.00,CLR,,0.00,WeatherDisplay:10.37,2013-01-07 23:10:00,
2013-01-07 18:15:00,21.7,11.4,30.39,North,6,0.0,0.0,64,0.00,CLR,,0.00,WeatherDisplay:10.37,2013-01-07 23:15:00,
2013-01-07 18:20:00,22.1,11.8,30.38,North,6,0.0,0.0,64,0.00,CLR,,0.00,WeatherDisplay:10.37,2013-01-07 23:20:00,
2013-01-07 18:25:00,21.4,11.1,30.38,North,6,0.0,0.0,64,0.00,CLR,,0.00,WeatherDisplay:10.37,2013-01-07 23:25:00,
2013-01-07 18:30:00,21.2,10.9,30.38,North,6,0.0,0.0,64,0.00,CLR,,0.00,WeatherDisplay:10.37,2013-01-07 23:30:00,
2013-01-07 18:40:00,21.1,10.8,30.38,North,6,0.0,0.0,64,0.00,CLR,,0.00,WeatherDisplay:10.37,2013-01-07 23:40:00,
2013-01-07 18:45:00,20.6,10.3,30.38,North,6,0.0,0.0,64,0.00,CLR,,0.00,WeatherDisplay:10.37,2013-01-07 23:45:00,
2013-01-07 18:50:00,20.5,10.2,30.38,North,6,0.0,0.0,64,0.00,CLR,,0.00,WeatherDisplay:10.37,2013-01-07 23:50:00,
2013-01-07 18:55:00,20.4,10.1,30.37,North,6,0.0,0.0,64,0.00,CLR,,0.00,WeatherDisplay:10.37,2013-01-07 23:55:00,
2013-01-07 19:00:00,19.9,9.7,30.37,North,6,0.0,0.0,64,0.00,CLR,,0.00,WeatherDisplay:10.37,2013-01-08 00:00:00,
2013-01-07 19:05:00,19.7,12.5,30.36,North,6,0.0,0.0,73,0.00,CLR,,0.00,WeatherDisplay:10.37,2013-01-08 00:05:00,
2013-01-07 19:10:00,19.9,12.7,30.36,North,6,0.0,0.0,73,0.00,CLR,,0.00,WeatherDisplay:10.37,2013-01-08 00:10:00,
2013-01-07 19:15:00,20.3,13.0,30.37,North,6,0.0,0.0,73,0.00,CLR,,0.00,WeatherDisplay:10.37,2013-01-08 00:15:00,
2013-01-07 19:20:00,22.0,14.6,30.37,North,6,0.0,0.0,73,0.00,CLR,,0.00,WeatherDisplay:10.37,2013-01-08 00:20:00,
2013-01-07 19:25:00,20.0,12.7,30.37,North,6,0.0,0.0,73,0.00,CLR,,0.00,WeatherDisplay:10.37,2013-01-08 00:25:00,
2013-01-07 19:30:00,19.2,12.0,30.37,North,6,0.0,0.0,73,0.00,CLR,,0.00,WeatherDisplay:10.37,2013-01-08 00:30:00,
2013-01-07 19:35:00,18.7,11.5,30.37,North,6,0.0,0.0,73,0.00,CLR,,0.00,WeatherDisplay:10.37,2013-01-08 00:35:00,
2013-01-07 19:40:00,18.9,11.7,30.37,North,6,0.0,0.0,73,0.00,CLR,,0.00,WeatherDisplay:10.37,2013-01-08 00:40:00,
2013-01-07 19:45:00,19.1,11.9,30.37,North,6,0.0,0.0,73,0.00,CLR,,0.00,WeatherDisplay:10.37,2013-01-08 00:45:00,
2013-01-07 19:50:00,18.7,11.5,30.37,North,6,0.0,0.0,73,0.00,CLR,,0.00,WeatherDisplay:10.37,2013-01-08 00:50:00,
2013-01-07 19:55:00,18.3,11.1,30.37,North,6,0.0,0.0,73,0.00,CLR,,0.00,WeatherDisplay:10.37,2013-01-08 00:55:00,
2013-01-07 20:00:00,18.4,11.2,30.37,North,6,0.0,0.0,73,0.00,CLR,,0.00,WeatherDisplay:10.37,2013-01-08 01:00:00,
2013-01-07 20:05:00,19.8,15.4,30.37,North,6,0.0,0.0,83,0.00,CLR,,0.00,WeatherDisplay:10.37,2013-01-08 01:05:00,
2013-01-07 20:10:00,20.0,15.7,30.37,North,6,0.0,0.0,83,0.00,CLR,,0.00,WeatherDisplay:10.37,2013-01-08 01:10:00,
2013-01-07 20:15:00,18.2,13.9,30.36,North,6,0.0,0.0,83,0.00,CLR,,0.00,WeatherDisplay:10.37,2013-01-08 01:15:00,
2013-01-07 20:20:00,17.8,13.5,30.36,North,6,0.0,0.0,83,0.00,CLR,,0.00,WeatherDisplay:10.37,2013-01-08 01:20:00,
2013-01-07 20:25:00,18.0,13.7,30.36,North,6,0.0,0.0,83,0.00,CLR,,0.00,WeatherDisplay:10.37,2013-01-08 01:25:00,
2013-01-07 20:35:00,17.4,13.1,30.36,North,6,0.0,0.0,83,0.00,CLR,,0.00,WeatherDisplay:10.37,2013-01-08 01:35:00,
2013-01-07 20:40:00,17.1,12.8,30.36,North,6,0.0,0.0,83,0.00,CLR,,0.00,WeatherDisplay:10.37,2013-01-08 01:40:00,
2013-01-07 20:45:00,17.0,12.7,30.36,North,6,0.0,0.0,83,0.00,CLR,,0.00,WeatherDisplay:10.37,2013-01-08 01:45:00,
2013-01-07 20:50:00,17.8,13.5,30.36,North,6,0.0,0.0,83,0.00,CLR,,0.00,WeatherDisplay:10.37,2013-01-08 01:50:00,
2013-01-07 20:55:00,18.0,13.7,30.36,North,6,0.0,0.0,83,0.00,CLR,,0.00,WeatherDisplay:10.37,2013-01-08 01:55:00,
2013-01-07 21:00:00,17.1,12.8,30.36,North,6,0.0,0.0,83,0.00,CLR,,0.00,WeatherDisplay:10.37,2013-01-08 02:00:00,
2013-01-07 21:05:00,16.6,12.4,30.36,North,6,0.0,0.0,83,0.00,CLR,,0.00,WeatherDisplay:10.37,2013-01-08 02:05:00,
2013-01-07 21:10:00,17.5,13.2,30.36,North,6,0.0,0.0,83,0.00,CLR,,0.00,WeatherDisplay:10.37,2013-01-08 02:10:00,
2013-01-07 21:15:00,16.5,12.2,30.36,North,6,0.0,0.0,83,0.00,CLR,,0.00,WeatherDisplay:10.37,2013-01-08 02:15:00,
2013-01-07 21:20:00,16.4,12.1,30.36,North,6,0.0,0.0,83,0.00,CLR,,0.00,WeatherDisplay:10.37,2013-01-08 02:20:00,
2013-01-07 21:30:00,17.6,13.3,30.36,North,6,0.0,0.0,83,0.00,CLR,,0.00,WeatherDisplay:10.37,2013-01-08 02:30:00,
2013-01-07 21:35:00,16.8,12.6,30.36,North,6,0.0,0.0,83,0.00,CLR,,0.00,WeatherDisplay:10.37,2013-01-08 02:35:00,
2013-01-07 21:40:00,16.9,12.6,30.36,North,6,0.0,0.0,83,0.00,CLR,,0.00,WeatherDisplay:10.37,2013-01-08 02:40:00,
2013-01-07 21:45:00,17.3,13.0,30.36,North,6,0.0,0.0,83,0.00,CLR,,0.00,WeatherDisplay:10.37,2013-01-08 02:45:00,
2013-01-07 21:50:00,16.3,12.1,30.36,North,6,0.0,0.0,83,0.00,CLR,,0.00,WeatherDisplay:10.37,2013-01-08 02:50:00,
2013-01-07 21:55:00,16.5,12.2,30.36,North,6,0.0,0.0,83,0.00,CLR,,0.00,WeatherDisplay:10.37,2013-01-08 02:55:00,
2013-01-07 22:00:00,15.7,11.4,30.36,North,6,0.0,0.0,83,0.00,CLR,,0.00,WeatherDisplay:10.37,2013-01-08 03:00:00,
2013-01-07 22:05:00,16.0,13.8,30.35,North,6,0.0,0.0,91,0.00,CLR,,0.00,WeatherDisplay:10.37,2013-01-08 03:05:00,
2013-01-07 22:10:00,16.6,14.4,30.35,North,6,0.0,0.0,91,0.00,CLR,,0.00,WeatherDisplay:10.37,2013-01-08 03:10:00,
2013-01-07 22:15:00,16.3,14.1,30.35,North,6,0.0,0.0,91,0.00,CLR,,0.00,WeatherDisplay:10.37,2013-01-08 03:15:00,
2013-01-07 22:20:00,16.9,14.8,30.35,North,6,0.0,0.0,91,0.00,CLR,,0.00,WeatherDisplay:10.37,2013-01-08 03:20:00,
2013-01-07 22:25:00,16.7,14.5,30.35,North,6,0.0,0.0,91,0.00,CLR,,0.00,WeatherDisplay:10.37,2013-01-08 03:25:00,
2013-01-07 22:30:00,16.1,14.0,30.35,North,6,0.0,0.0,91,0.00,CLR,,0.00,WeatherDisplay:10.37,2013-01-08 03:30:00,
2013-01-07 22:35:00,15.8,13.6,30.35,North,6,0.0,0.0,91,0.00,CLR,,0.00,WeatherDisplay:10.37,2013-01-08 03:35:00,
2013-01-07 22:40:00,15.3,13.2,30.35,North,6,0.0,0.0,91,0.00,CLR,,0.00,WeatherDisplay:10.37,2013-01-08 03:40:00,
2013-01-07 22:45:00,16.1,13.9,30.36,North,6,0.0,0.0,91,0.00,CLR,,0.00,WeatherDisplay:10.37,2013-01-08 03:45:00,
2013-01-07 22:50:00,16.3,14.1,30.35,North,6,0.0,0.0,91,0.00,CLR,,0.00,WeatherDisplay:10.37,2013-01-08 03:50:00,
2013-01-07 22:55:00,15.9,13.7,30.35,North,6,0.0,0.0,91,0.00,CLR,,0.00,WeatherDisplay:10.37,2013-01-08 03:55:00,
2013-01-07 23:00:00,15.5,13.3,30.35,North,6,0.0,0.0,91,0.00,CLR,,0.00,WeatherDisplay:10.37,2013-01-08 04:00:00,
2013-01-07 23:05:00,14.9,11.7,30.35,North,6,0.0,0.0,87,0.00,CLR,,0.00,WeatherDisplay:10.37,2013-01-08 04:05:00,
2013-01-07 23:10:00,14.9,11.7,30.34,North,6,0.0,0.0,87,0.00,CLR,,0.00,WeatherDisplay:10.37,2013-01-08 04:10:00,
2013-01-07 23:15:00,15.5,12.3,30.34,North,6,0.0,0.0,87,0.00,CLR,,0.00,WeatherDisplay:10.37,2013-01-08 04:15:00,
2013-01-07 23:20:00,15.7,12.6,30.35,North,6,0.0,0.0,87,0.00,CLR,,0.00,WeatherDisplay:10.37,2013-01-08 04:20:00,
2013-01-07 23:25:00,15.5,12.3,30.35,North,6,0.0,0.0,87,0.00,CLR,,0.00,WeatherDisplay:10.37,2013-01-08 04:25:00,
2013-01-07 23:30:00,15.3,12.2,30.34,North,6,0.0,0.0,87,0.00,CLR,,0.00,WeatherDisplay:10.37,2013-01-08 04:30:00,
2013-01-07 23:35:00,15.7,12.5,30.34,North,6,0.0,0.0,87,0.00,CLR,,0.00,WeatherDisplay:10.37,2013-01-08 04:35:00,
2013-01-07 23:40:00,15.2,12.0,30.34,North,6,0.0,0.0,87,0.00,CLR,,0.00,WeatherDisplay:10.37,2013-01-08 04:40:00,
2013-01-07 23:45:00,14.6,11.4,30.34,North,6,0.0,0.0,87,0.00,CLR,,0.00,WeatherDisplay:10.37,2013-01-08 04:45:00,
2013-01-07 23:50:00,15.2,12.0,30.34,North,6,0.0,0.0,87,0.00,CLR,,0.00,WeatherDisplay:10.37,2013-01-08 04:50:00,
2013-01-07 23:55:00,14.7,11.5,30.34,North,6,0.0,0.0,87,0.00,CLR,,0.00,WeatherDisplay:10.37,2013-01-08 04:55:00,